Location: Lake Almanor
(40.2485°N, 121.1442°W)
Time: 16:44:43
(UTC-08:00)

STARLINK-1117 - Pass Details

Date: 30 January 2020
Orbit: 348 x 351 km, 53.0° (Epoch: 17 February)

Event Time Altitude Azimuth Distance (km) Brightness Sun altitude
Rises 19:08:07 0° 310° (NW) 2,194 7.4 -20.7°
Reaches altitude 10° 19:10:09 10° 311° (NW) 1,346 6.2 -21.1°
Enters shadow 19:12:04 36° 314° (NW) 595 4.1 -21.4°
